Weather in Sukhaya Tereshka

Russia / Ulyanovsk Oblast     52°58′38″N   47°29′30″E
temp.,
°C
wind,
m/s
gust,
m/s
humid.,
%
clouds,
%
prec.,
mm/h
press.,
hPa
HPBL,
m
9 may, sun
sun901:00+12s2275100 0.0 101224
04:00+11sse337651 0.0 101231
07:00+13sse4116497 0.0 1012253
10:00+18sse71258100 0.0 1011858
13:00+17s61062100 0.0 1011506
16:00+22s71147100 0.0 10102279
19:00+19s4855100 0.0 1011222
22:00+15sse2261100 0.0 101212
10 may, mon
mon1001:00+14nnw3367100 0.0 101363
04:00+12nne3482100 0.0 101488
07:00+14e2872100 0.0 1015256
10:00+18ese4859100 0.0 1015517
13:00+23ese6941100 0.0 10161481
16:00+22e5845100 0.0 10161120
19:00+20ene51156100 0.0 1017318
22:00+16ne51267100 0.0 1019302
11 may, tue
tue1101:00+14ne51179100 0.0 1020260
04:00+14ne51176100 0.0 1021299
07:00+14e5117491 0.0 1022372
10:00+20e6105495 0.0 1023787
13:00+23e79426 0.0 10231824
16:00+23e794447 0.0 10231872
19:00+19ene51159100 0.0 1024308
22:00+14w3678100 0.1 1025141
12 may, wed
wed1201:00+15ene117699 0.0 102520
04:00+15e51464100 0.0 1024405
07:00+15e411687 0.0 1025337
10:00+20ese71048100 0.0 1026939
13:00+22ese893960 0.0 10261696
16:00+23ese794199 0.0 10251864
19:00+18ese51156100 0.0 1025411
22:00+15ese3964100 0.0 1025189
13 may, thu
thu1301:00+14e396433 0.0 1025177
04:00+12e3106574 0.0 1024185
07:00+14e5126427 0.0 1024386
10:00+18ese695366 0.0 1024563
13:00+17ese51067100 0.0 1024554
16:00+20se6105537 0.1 1023964
19:00+20ese5115423 0.0 1023382
22:00+16ese4115916 0.0 1023193